Torna al catalogo

FENGYUN 1C DEB

AttivoPO
NORAD 30827·DEBRIS·🇨🇳 China

Lanciato May 10, 1999 da Taiyuan Satellite Launch Center

Loading…

Prossimi Passaggi (prossime 24 ore)

TLE

AggiornatoSource: Space-Track

Epoca: Sep 13, 2026, 23:18 UTC

1 30827U 99025AVM 26256.97124470  .00004886  00000-0  14948-2 0  9994
2 30827  99.0142 261.7027 0044728  87.3039 273.3267 14.41690477  4981

Traccia FENGYUN 1C DEB in tempo reale con AllMySat

Download on the App Store